When you browse on this site, cookies collect data to enhance your experience and personalize the content and advertising you see.
Visit our Privacy Policy to learn more. By continuing to use the site, you agree to this use of cookies and data.
  • In Hungary
  • List of Countries
  • For 7 days
  • Water Temperature
  • Weather Map
  • News
  • Weather Widgets
  • user-avatar
    Login

    Hourly Weather Bolshie Aty

    Today, 20 August, Tuesday

    Time Temperature Precipitation Wind Pressure Humidity
    00:00 +20°C° 0 mm 0 mps 756 mmHg 72%
    01:00 +23°C° 0 mm 1 mps 756 mmHg 69%
    02:00 +23°C° 0 mm 1 mps 756 mmHg 65%
    03:00 +23°C° 0 mm 2 mps 756 mmHg 61%
    04:00 +23°C° 0 mm 2 mps 756 mmHg 65%
    05:00 +23°C° 0 mm 2 mps 756 mmHg 68%
    06:00 +21°C° 0 mm 3 mps 756 mmHg 72%
    07:00 +22°C° 0 mm 3 mps 756 mmHg 72%
    08:00 +25°C° 0 mm 3 mps 756 mmHg 72%
    09:00 +26°C° 0 mm 3 mps 756 mmHg 72%
    10:00 +26°C° 0 mm 3 mps 756 mmHg 70%
    11:00 +27°C° 0 mm 3 mps 756 mmHg 69%
    12:00 +28°C° 0 mm 4 mps 756 mmHg 67%
    13:00 +28°C° 0 mm 4 mps 756 mmHg 67%
    14:00 +27°C° 0 mm 4 mps 756 mmHg 67%
    15:00 +27°C° 0 mm 4 mps 756 mmHg 67%
    16:00 +26°C° 0 mm 3 mps 756 mmHg 71%
    17:00 +25°C° 0 mm 3 mps 756 mmHg 76%
    18:00 +24°C° 0 mm 3 mps 757 mmHg 81%
    19:00 +23°C° 0 mm 2 mps 757 mmHg 84%
    20:00 +21°C° 0 mm 2 mps 757 mmHg 87%
    21:00 +19°C° 0 mm 2 mps 757 mmHg 90%
    22:00 +19°C° 0 mm 2 mps 757 mmHg 92%
    23:00 +18°C° 0 mm 2 mps 757 mmHg 94%

    Tomorrow, 21 August, Wednesday

    Time Temperature Precipitation Wind Pressure Humidity
    00:00 +18°C° 0 mm 2 mps 757 mmHg 96%
    01:00 +17°C° 0 mm 2 mps 757 mmHg 96%
    02:00 +17°C° 0 mm 2 mps 757 mmHg 96%
    03:00 +16°C° 0 mm 2 mps 757 mmHg 96%
    04:00 +17°C° 0 mm 2 mps 757 mmHg 95%
    05:00 +17°C° 0 mm 3 mps 757 mmHg 94%
    06:00 +18°C° 0 mm 3 mps 757 mmHg 94%
    07:00 +19°C° 0 mm 3 mps 758 mmHg 90%
    08:00 +20°C° 0 mm 3 mps 758 mmHg 87%
    09:00 +21°C° 0 mm 4 mps 758 mmHg 83%
    10:00 +22°C° 0 mm 4 mps 758 mmHg 82%
    11:00 +22°C° 0 mm 3 mps 758 mmHg 81%
    12:00 +22°C° 0 mm 3 mps 758 mmHg 79%
    13:00 +22°C° 0 mm 3 mps 758 mmHg 78%
    14:00 +22°C° 0 mm 3 mps 758 mmHg 78%
    15:00 +22°C° 0 mm 3 mps 759 mmHg 77%
    16:00 +22°C° 0 mm 3 mps 758 mmHg 79%
    17:00 +21°C° 0 mm 2 mps 758 mmHg 82%
    18:00 +20°C° 0 mm 2 mps 758 mmHg 84%
    19:00 +19°C° 0 mm 2 mps 759 mmHg 86%
    20:00 +19°C° 0 mm 1 mps 759 mmHg 88%
    21:00 +19°C° 0 mm 1 mps 759 mmHg 91%
    22:00 +18°C° 0 mm 1 mps 759 mmHg 91%
    23:00 +18°C° 0 mm 1 mps 759 mmHg 91%

    Day after tomorrow, 22 August, Thursday

    Time Temperature Precipitation Wind Pressure Humidity
    00:00 +18°C° 0 mm 1 mps 759 mmHg 91%
    01:00 +16°C° 0 mm 1 mps 759 mmHg 91%
    02:00 +15°C° 0 mm 0 mps 759 mmHg 92%
    03:00 +15°C° 0 mm 0 mps 759 mmHg 92%
    04:00 +15°C° 0 mm 0 mps 759 mmHg 90%
    05:00 +16°C° 0 mm 0 mps 759 mmHg 89%
    06:00 +17°C° 0 mm 0 mps 759 mmHg 87%
    07:00 +18°C° 0 mm 0 mps 759 mmHg 82%
    08:00 +20°C° 0 mm 0 mps 759 mmHg 77%
    09:00 +21°C° 0 mm 0 mps 759 mmHg 72%
    10:00 +22°C° 0 mm 0 mps 759 mmHg 69%
    11:00 +23°C° 0 mm 0 mps 759 mmHg 66%
    12:00 +24°C° 0 mm 0 mps 759 mmHg 63%
    13:00 +26°C° 0 mm 1 mps 758 mmHg 63%
    14:00 +27°C° 0 mm 1 mps 758 mmHg 63%
    15:00 +27°C° 0 mm 2 mps 758 mmHg 63%
    16:00 +26°C° 0 mm 1 mps 758 mmHg 67%
    17:00 +25°C° 0 mm 1 mps 757 mmHg 72%
    18:00 +24°C° 0 mm 1 mps 757 mmHg 76%
    19:00 +23°C° 0 mm 1 mps 757 mmHg 79%
    20:00 +22°C° 0 mm 1 mps 757 mmHg 81%
    21:00 +21°C° 0 mm 1 mps 757 mmHg 84%
    22:00 +20°C° 0 mm 1 mps 757 mmHg 85%
    23:00 +19°C° 0 mm 2 mps 757 mmHg 86%

    23 August, Friday

    Time Temperature Precipitation Wind Pressure Humidity
    00:00 +19°C° 0 mm 2 mps 757 mmHg 88%
    01:00 +18°C° 0 mm 2 mps 757 mmHg 88%
    02:00 +18°C° 0 mm 2 mps 757 mmHg 89%
    03:00 +18°C° 0 mm 2 mps 757 mmHg 90%
    04:00 +18°C° 0 mm 2 mps 757 mmHg 89%
    05:00 +19°C° 0 mm 2 mps 757 mmHg 88%
    06:00 +19°C° 0 mm 2 mps 757 mmHg 87%
    07:00 +21°C° 0 mm 2 mps 757 mmHg 83%
    08:00 +23°C° 0 mm 2 mps 757 mmHg 78%
    09:00 +24°C° 0 mm 2 mps 757 mmHg 74%
    10:00 +25°C° 0.2 mm 2 mps 757 mmHg 73%
    11:00 +25°C° 0.2 mm 2 mps 757 mmHg 73%
    12:00 +26°C° 0.2 mm 2 mps 757 mmHg 72%
    13:00 +26°C° 0.5 mm 2 mps 757 mmHg 74%
    14:00 +25°C° 0.5 mm 2 mps 757 mmHg 76%
    15:00 +25°C° 0.5 mm 3 mps 757 mmHg 78%
    16:00 +24°C° 0.3 mm 3 mps 756 mmHg 81%
    17:00 +23°C° 0.3 mm 2 mps 756 mmHg 84%
    18:00 +23°C° 0.3 mm 2 mps 756 mmHg 87%
    19:00 +21°C° 0 mm 2 mps 756 mmHg 88%
    20:00 +19°C° 0 mm 3 mps 756 mmHg 88%
    21:00 +18°C° 0 mm 3 mps 756 mmHg 89%
    22:00 +18°C° 0.1 mm 3 mps 756 mmHg 89%
    23:00 +17°C° 0.1 mm 3 mps 756 mmHg 89%

    24 August, Saturday

    Time Temperature Precipitation Wind Pressure Humidity
    00:00 +17°C° 0.1 mm 3 mps 755 mmHg 89%
    01:00 +17°C° 0.9 mm 4 mps 755 mmHg 90%
    02:00 +17°C° 0.9 mm 4 mps 755 mmHg 92%
    03:00 +17°C° 0.9 mm 4 mps 754 mmHg 94%
    04:00 +17°C° 0.9 mm 4 mps 754 mmHg 94%
    05:00 +17°C° 0.9 mm 4 mps 753 mmHg 94%
    06:00 +17°C° 0.9 mm 4 mps 753 mmHg 95%
    07:00 +19°C° 0 mm 4 mps 753 mmHg 90%
    08:00 +20°C° 0 mm 3 mps 752 mmHg 85%
    09:00 +22°C° 0 mm 3 mps 752 mmHg 80%
    10:00 +24°C° 0 mm 3 mps 752 mmHg 76%
    11:00 +25°C° 0 mm 3 mps 751 mmHg 72%
    12:00 +26°C° 0 mm 2 mps 751 mmHg 69%
    13:00 +25°C° 0.7 mm 2 mps 750 mmHg 73%
    14:00 +25°C° 0.7 mm 2 mps 750 mmHg 77%
    15:00 +24°C° 0.7 mm 2 mps 749 mmHg 81%
    16:00 +22°C° 0.5 mm 3 mps 749 mmHg 84%
    17:00 +21°C° 0.5 mm 4 mps 749 mmHg 86%
    18:00 +20°C° 0.5 mm 5 mps 749 mmHg 89%
    19:00 +19°C° 0 mm 5 mps 749 mmHg 91%
    20:00 +17°C° 0 mm 5 mps 749 mmHg 93%
    21:00 +17°C° 0 mm 4 mps 749 mmHg 95%
    22:00 +15°C° 0 mm 4 mps 749 mmHg 95%
    23:00 +16°C° 0 mm 3 mps 749 mmHg 94%

    25 August, Sunday

    Time Temperature Precipitation Wind Pressure Humidity
    00:00 +16°C° 0 mm 3 mps 749 mmHg 94%
    01:00 +14°C° 0 mm 3 mps 749 mmHg 95%
    02:00 +15°C° 0 mm 2 mps 749 mmHg 95%
    03:00 +15°C° 0 mm 2 mps 749 mmHg 95%
    04:00 +15°C° 0 mm 2 mps 749 mmHg 95%
    05:00 +13°C° 0 mm 3 mps 749 mmHg 94%
    06:00 +13°C° 0 mm 3 mps 749 mmHg 94%
    07:00 +13°C° 0 mm 4 mps 750 mmHg 93%
    08:00 +13°C° 0 mm 4 mps 750 mmHg 92%
    09:00 +14°C° 0 mm 4 mps 750 mmHg 91%
    10:00 +14°C° 0 mm 5 mps 750 mmHg 91%
    11:00 +14°C° 0 mm 5 mps 750 mmHg 90%
    12:00 +14°C° 0 mm 6 mps 750 mmHg 89%
    13:00 +14°C° 0.1 mm 6 mps 750 mmHg 89%
    14:00 +14°C° 0.1 mm 7 mps 750 mmHg 88%
    15:00 +14°C° 0.1 mm 7 mps 751 mmHg 88%
    16:00 +12°C° 0.2 mm 7 mps 751 mmHg 88%
    17:00 +13°C° 0.2 mm 6 mps 751 mmHg 89%
    18:00 +13°C° 0.2 mm 6 mps 751 mmHg 89%
    19:00 +13°C° 0 mm 6 mps 751 mmHg 89%
    20:00 +13°C° 0 mm 5 mps 751 mmHg 88%
    21:00 +13°C° 0 mm 5 mps 752 mmHg 88%
    22:00 +13°C° 0 mm 5 mps 752 mmHg 86%
    23:00 +11°C° 0 mm 6 mps 752 mmHg 85%
    Show more